Date_and_time,latitude,longitude,wind_speed,RelWindDirFrom,WindDirFrom,air_pressure,air_temperature,relative_humidity,Temp,platform_speed_wrt_ground,air_pressure_at_mean_sea_level,platform_orientation
2019-03-13 00:00,50.630445,-96.9807633333333,8.9,11.7,170,972.44,-0.8,90,0.70,0.0,999.87,90.0
2019-03-13 00:10,50.630445,-96.9807633333333,11.6,15.2,162,972.28,-0.9,91,0.70,0.0,999.72,90.0
2019-03-13 00:20,50.630445,-96.9807633333333,11.0,13.3,167,972.31,-1.0,92,0.70,0.0,999.76,90.0
2019-03-13 00:30,50.6304466666667,-96.9807633333333,9.5,11.5,168,972.38,-1.6,96,0.69,0.0,999.87,90.0
2019-03-13 00:40,50.6304466666667,-96.9807633333333,10.2,12.6,166,972.41,-1.6,98,0.70,0.0,999.90,90.0
2019-03-13 00:50,50.6304483333333,-96.9807633333333,10.0,12.1,168,972.45,-1.8,99,0.69,0.0,999.95,90.0
2019-03-13 01:00,50.6304566666667,-96.9807683333333,11.0,12.9,165,972.31,-2.0,99,0.68,0.0,999.83,41.3
2019-03-13 01:10,50.63044,-96.9807683333333,10.9,12.6,164,972.17,-2.3,99,0.69,0.0,999.71,41.3
2019-03-13 01:20,50.6304433333333,-96.9807716666667,9.9,12.5,167,972.19,-2.3,99,0.70,0.0,999.75,41.3
2019-03-13 01:30,50.6304516666667,-96.98077,9.3,12.2,167,972.20,-2.2,99,0.69,0.0,999.76,41.3
2019-03-13 01:40,50.6304516666667,-96.980765,8.2,11.8,169,972.27,-2.1,99,0.68,0.0,999.83,41.3
2019-03-13 01:50,50.6304516666667,-96.9807683333333,6.9,8.8,173,972.34,-1.9,99,0.69,0.0,999.91,41.3
2019-03-13 02:00,50.6304516666667,-96.9807683333333,8.5,11.2,182,972.38,-1.7,99,0.69,0.0,999.95,345.5
2019-03-13 02:10,50.6304516666667,-96.9807683333333,7.5,10.2,192,972.42,-1.5,99,0.68,0.0,999.98,345.5
2019-03-13 02:20,50.63045,-96.9807683333333,8.6,11.5,195,972.52,-1.7,99,0.68,0.0,1000.12,345.5
2019-03-13 02:30,50.6304566666667,-96.980785,10.3,13.3,187,972.47,-2.0,99,0.68,0.0,1000.09,345.5
2019-03-13 02:40,50.6304516666667,-96.9807816666667,9.9,13.7,188,972.50,-2.3,100,0.67,0.0,1000.14,345.5
2019-03-13 02:50,50.6304483333333,-96.9807766666667,11.8,15.5,180,972.35,-2.6,100,0.68,0.0,1000.01,345.5
2019-03-13 03:00,50.630445,-96.98077,11.4,14.7,182,972.45,-2.8,100,0.68,0.0,1000.14,0.0
2019-03-13 03:10,50.6304466666667,-96.9807666666667,11.5,15.2,185,972.49,-2.9,100,0.68,0.0,1000.19,0.0
2019-03-13 03:20,50.6304466666667,-96.980765,12.3,16.1,187,972.48,-2.8,100,0.68,0.0,1000.16,0.0
2019-03-13 03:30,50.6304316666667,-96.98078,12.2,15.2,186,972.42,-2.8,100,0.68,0.0,1000.10,0.0
2019-03-13 03:40,50.63045,-96.9807633333333,11.4,14.1,186,972.47,-3.0,100,0.70,0.0,1000.15,0.0
2019-03-13 03:50,50.63045,-96.9807683333333,10.9,15.0,188,972.68,-3.1,100,0.70,0.0,1000.37,0.0
2019-03-13 04:00,50.63045,-96.9807716666667,10.4,13.6,183,972.65,-3.3,100,0.70,0.0,1000.33,270.0
2019-03-13 04:10,50.6304516666667,-96.98077,9.9,12.8,181,972.71,-3.5,100,0.70,0.0,1000.41,270.0
2019-03-13 04:20,50.6304533333333,-96.98077,8.7,11.2,182,972.64,-3.7,100,0.70,0.0,1000.37,270.0
2019-03-13 04:30,50.630455,-96.9807633333333,9.4,11.8,181,972.69,-3.9,100,0.71,0.0,1000.44,270.0
2019-03-13 04:40,50.6304566666667,-96.9807733333333,8.8,11.4,176,972.70,-4.0,100,0.71,0.0,1000.48,270.0
2019-03-13 04:50,50.6304366666667,-96.9807583333333,8.9,10.8,171,972.71,-4.1,100,0.69,0.0,1000.51,270.0
2019-03-13 05:00,50.6304466666667,-96.980765,9.9,11.9,172,972.63,-4.2,100,0.69,0.0,1000.43,360.0
2019-03-13 05:10,50.6304483333333,-96.98077,10.0,11.8,176,972.76,-4.2,100,0.70,0.0,1000.55,360.0
2019-03-13 05:20,50.63046,-96.9807666666667,9.5,11.4,175,972.82,-4.2,100,0.70,0.0,1000.62,360.0
2019-03-13 05:30,50.6304533333333,-96.9807666666667,9.2,11.6,174,972.97,-4.1,100,0.69,0.0,1000.78,360.0
2019-03-13 05:40,50.6304566666667,-96.9807666666667,9.5,11.5,173,973.02,-4.1,100,0.70,0.0,1000.83,360.0
2019-03-13 05:50,50.6304583333333,-96.9807666666667,10.0,12.9,173,973.13,-4.1,100,0.69,0.0,1000.96,360.0
2019-03-13 06:00,50.6304583333333,-96.98077,8.6,11.3,173,973.13,-4.2,100,0.69,0.0,1000.97,360.0
2019-03-13 06:10,50.6304583333333,-96.98077,8.4,10.5,173,973.16,-4.3,100,0.71,0.0,1001.03,360.0
2019-03-13 06:20,50.6304366666667,-96.98082,9.7,13.0,184,973.33,-4.4,100,0.69,0.0,1001.21,360.0
2019-03-13 06:30,50.6304416666667,-96.9807766666667,10.0,12.9,182,973.37,-4.5,99,0.69,0.0,1001.26,360.0
2019-03-13 06:40,50.6304533333333,-96.98076,9.5,11.6,180,973.42,-4.9,100,0.68,0.0,1001.34,360.0
2019-03-13 06:50,50.6304516666667,-96.98076,10.2,12.8,179,973.46,-5.1,100,0.68,0.0,1001.40,360.0
2019-03-13 07:00,50.6304516666667,-96.980765,11.3,13.7,181,973.61,-5.2,100,0.68,0.0,1001.56,90.0
2019-03-13 07:10,50.63045,-96.9807666666667,11.8,14.1,179,973.60,-5.3,100,0.69,0.0,1001.56,90.0
2019-03-13 07:20,50.630445,-96.9807716666667,11.1,13.3,181,973.66,-5.5,100,0.68,0.0,1001.63,90.0
2019-03-13 07:30,50.6304466666667,-96.980775,10.6,12.9,181,973.83,-5.6,100,0.69,0.0,1001.80,90.0
2019-03-13 07:40,50.6304483333333,-96.980775,8.5,9.9,177,973.77,-5.8,100,0.71,0.0,1001.75,90.0
2019-03-13 07:50,50.6304466666667,-96.9807733333333,10.0,12.6,177,973.88,-6.0,100,0.71,0.0,1001.88,90.0
2019-03-13 08:00,50.6304566666667,-96.9807583333333,7.1,9.1,183,973.92,-6.2,100,0.71,0.0,1001.94,48.3
2019-03-13 08:10,50.63041,-96.9807416666667,8.4,10.9,188,974.11,-6.2,100,0.72,0.0,1002.14,48.3
2019-03-13 08:20,50.6304516666667,-96.9807783333333,10.4,13.8,187,974.24,-6.2,100,0.71,0.0,1002.28,48.3
2019-03-13 08:30,50.63045,-96.9807716666667,9.3,12.3,184,974.11,-6.3,100,0.71,0.0,1002.17,48.3
2019-03-13 08:40,50.6304516666667,-96.980775,8.2,10.7,188,974.15,-6.4,100,0.71,0.0,1002.22,48.3
2019-03-13 08:50,50.6304516666667,-96.9807733333333,6.7,8.8,185,974.11,-6.5,100,0.71,0.0,1002.19,48.3
2019-03-13 09:00,50.6304516666667,-96.9807716666667,7.3,9.8,178,974.19,-6.6,100,0.71,0.0,1002.29,228.3
2019-03-13 09:10,50.6304516666667,-96.98077,6.9,8.3,183,974.21,-6.9,100,0.71,0.0,1002.34,228.3
2019-03-13 09:20,50.6304533333333,-96.9807683333333,7.3,9.0,181,974.37,-7.0,100,0.71,0.0,1002.51,228.3
2019-03-13 09:30,50.6304533333333,-96.9807683333333,6.4,9.4,191,974.32,-7.0,100,0.71,0.0,1002.47,228.3
2019-03-13 09:40,50.6304533333333,-96.9807683333333,7.4,10.3,194,974.64,-7.0,100,0.71,0.0,1002.81,228.3
2019-03-13 09:50,50.63046,-96.9807883333333,7.6,11.3,194,974.75,-7.0,100,0.71,0.0,1002.94,228.3
2019-03-13 10:00,50.63045,-96.9807666666667,4.6,8.3,200,974.56,-7.0,100,0.71,0.0,1002.73,0.0
2019-03-13 10:10,50.63045,-96.9807633333333,3.3,4.8,205,974.33,-7.1,100,0.71,0.0,1002.51,0.0
2019-03-13 10:20,50.63045,-96.980765,4.3,5.6,182,974.42,-7.4,100,0.71,0.0,1002.62,0.0
2019-03-13 10:30,50.6304533333333,-96.980765,3.6,4.9,172,974.24,-7.6,100,0.71,0.0,1002.46,0.0
2019-03-13 10:40,50.6304516666667,-96.9807666666667,4.5,5.1,175,974.33,-7.8,100,0.71,0.0,1002.56,0.0
2019-03-13 10:50,50.630465,-96.9807733333333,5.5,6.3,187,974.73,-8.0,100,0.71,0.0,1002.99,0.0
2019-03-13 11:00,50.6304533333333,-96.980775,5.3,5.9,180,975.13,-8.3,100,0.71,0.0,1003.43,270.0
2019-03-13 11:10,50.630435,-96.9807666666667,5.2,7.2,196,975.58,-8.6,100,0.71,0.0,1003.92,270.0
2019-03-13 11:20,50.6304433333333,-96.9807716666667,4.4,6.2,198,975.66,-8.4,100,0.70,0.0,1003.99,270.0
2019-03-13 11:30,50.630445,-96.9807683333333,4.6,5.7,197,975.74,-8.3,100,0.70,0.0,1004.06,270.0
2019-03-13 11:40,50.630445,-96.9807716666667,4.7,5.9,185,975.83,-8.5,100,0.71,0.0,1004.17,270.0
2019-03-13 11:50,50.630445,-96.9807716666667,3.2,5.3,173,975.63,-8.6,100,0.70,0.0,1003.96,270.0
2019-03-13 12:00,50.630445,-96.9807716666667,4.0,5.0,179,975.85,-8.8,100,0.70,0.0,1004.21,360.0
2019-03-13 12:10,50.63046,-96.9807616666667,5.6,7.5,174,976.11,-9.0,100,0.69,0.0,1004.51,360.0
2019-03-13 12:20,50.630455,-96.9807816666667,7.3,8.3,167,976.29,-9.4,100,0.69,0.0,1004.72,360.0
2019-03-13 12:30,50.6304483333333,-96.980765,6.1,8.2,177,976.44,-9.7,100,0.69,0.0,1004.90,360.0
2019-03-13 12:40,50.630445,-96.9807666666667,1.7,3.9,176,976.08,-9.6,100,0.70,0.0,1004.54,360.0
2019-03-13 12:50,50.630445,-96.98076,2.0,4.8,205,976.25,-9.4,100,0.69,0.0,1004.72,360.0
2019-03-13 13:00,50.6304433333333,-96.9807616666667,4.7,5.6,194,976.77,-9.4,100,0.69,0.0,1005.27,360.0
2019-03-13 13:10,50.6304466666667,-96.98076,3.2,4.2,182,976.61,-9.4,100,0.68,0.0,1005.10,360.0
2019-03-13 13:20,50.630445,-96.9807616666667,2.0,3.8,181,976.38,-9.4,100,0.69,0.0,1004.85,360.0
2019-03-13 13:30,50.6304466666667,-96.9807633333333,4.2,6.1,184,977.07,-9.3,100,0.70,0.0,1005.57,360.0
2019-03-13 13:40,50.6304333333333,-96.98076,6.2,7.3,175,977.54,-9.5,100,0.68,0.0,1006.07,360.0
2019-03-13 13:50,50.630445,-96.9807633333333,3.1,5.8,168,977.18,-9.5,100,0.68,0.0,1005.71,360.0
2019-03-13 14:00,50.6304483333333,-96.9807633333333,2.2,2.9,201,977.29,-9.1,99,0.69,0.0,1005.81,131.7
2019-03-13 14:10,50.6304466666667,-96.980765,1.0,2.7,172,977.13,-8.7,99,0.69,0.0,1005.65,131.7
2019-03-13 14:20,50.6304466666667,-96.980765,4.5,5.7,166,977.34,-8.6,99,0.69,0.0,1005.87,131.7
2019-03-13 14:30,50.6304483333333,-96.9807666666667,4.9,6.0,176,977.68,-8.8,99,0.69,0.0,1006.23,131.7
2019-03-13 14:40,50.6304483333333,-96.9807666666667,6.8,8.5,180,978.33,-8.6,99,0.69,0.0,1006.87,131.7
2019-03-13 14:50,50.6304466666667,-96.9807666666667,5.8,7.7,182,978.27,-8.0,99,0.70,0.0,1006.78,131.7
2019-03-13 15:00,50.6304466666667,-96.9807683333333,2.1,3.3,213,977.94,-7.1,99,0.70,0.0,1006.39,12.6
2019-03-13 15:10,50.6304483333333,-96.9807683333333,2.3,3.7,209,978.03,-6.3,97,0.70,0.0,1006.44,12.6
2019-03-13 15:20,50.6304483333333,-96.9807683333333,0.5,1.7,83,977.70,-4.9,85,0.71,0.0,1006.03,12.6
2019-03-13 15:30,50.6304483333333,-96.9807683333333,0.7,1.8,127,977.82,-4.6,81,0.70,0.0,1006.14,12.6
2019-03-13 15:40,50.6304483333333,-96.9807683333333,0.9,1.5,96,977.67,-3.5,74,0.69,0.0,1005.92,12.6
2019-03-13 15:50,50.6304483333333,-96.9807683333333,0.6,1.4,94,977.65,-3.2,72,0.68,0.0,1005.87,12.6
2019-03-13 16:00,50.6304483333333,-96.98077,1.0,1.7,34,977.61,-5.2,83,0.68,0.0,1005.92,347.4
2019-03-13 16:10,50.6304416666667,-96.980765,1.1,2.0,44,977.65,-4.9,81,0.68,0.0,1005.93,347.4
2019-03-13 16:20,50.6304416666667,-96.980765,1.9,3.0,75,977.66,-4.0,76,0.68,0.0,1005.91,347.4
2019-03-13 16:30,50.6304433333333,-96.9807683333333,2.2,3.6,97,977.84,-3.8,76,0.69,0.0,1006.07,347.4
2019-03-13 16:40,50.630445,-96.98077,1.8,3.2,119,978.04,-5.0,86,0.69,0.0,1006.31,347.4
2019-03-13 16:50,50.630445,-96.9807683333333,3.7,5.4,118,978.39,-5.4,93,0.68,0.0,1006.65,347.4
2019-03-13 17:00,50.6304466666667,-96.9807716666667,3.7,4.5,111,978.67,-5.2,96,0.68,0.0,1006.88,270.0
2019-03-13 17:10,50.6304466666667,-96.9807716666667,3.6,5.1,125,978.90,-4.8,94,0.67,0.0,1007.01,270.0
2019-03-13 17:20,50.6304466666667,-96.9807716666667,4.0,5.2,134,978.96,-5.3,97,0.68,0.0,1007.09,270.0
2019-03-13 17:30,50.6304466666667,-96.9807716666667,4.2,5.3,131,979.23,-5.1,98,0.68,0.0,1007.29,270.0
2019-03-13 17:40,50.6304466666667,-96.98077,3.3,4.0,98,979.31,-3.4,89,0.68,0.0,1007.28,270.0
2019-03-13 17:50,50.6304483333333,-96.98077,3.5,4.7,90,979.44,-1.5,77,0.67,0.0,1007.41,270.0
2019-03-13 18:00,50.6304383333333,-96.9807583333333,4.1,5.3,92,979.67,-0.9,74,0.68,0.0,1007.60,131.7
2019-03-13 18:10,50.6304466666667,-96.98075,3.7,4.8,88,979.83,-0.8,73,0.69,0.0,1007.72,131.7
2019-03-13 18:20,50.6304483333333,-96.9807583333333,4.0,5.0,94,980.06,-0.5,73,0.70,0.0,1007.92,131.7
2019-03-13 18:30,50.6304533333333,-96.9807433333333,3.2,4.7,91,980.18,-0.5,73,0.70,0.0,1008.11,131.7
2019-03-13 18:40,50.6304533333333,-96.9807533333333,2.7,3.9,75,980.31,-0.1,71,0.71,0.0,1008.25,131.7
2019-03-13 18:50,50.6304533333333,-96.980755,3.1,4.2,59,980.41,-1.4,81,0.70,0.0,1008.40,131.7
2019-03-13 19:00,50.630455,-96.98076,3.4,4.8,46,980.34,-2.9,91,0.71,0.0,1008.38,48.3
2019-03-13 19:10,50.6304266666667,-96.9807533333333,3.8,4.8,44,980.25,-3.5,96,0.71,0.0,1008.35,48.3
2019-03-13 19:20,50.63044,-96.98076,3.5,4.4,42,980.30,-3.7,97,0.71,0.0,1008.41,48.3
2019-03-13 19:30,50.6304466666667,-96.9807616666667,2.7,4.0,32,980.42,-3.5,96,0.71,0.0,1008.43,48.3
2019-03-13 19:40,50.63045,-96.98076,2.9,3.7,31,980.49,-3.4,96,0.71,0.0,1008.40,48.3
2019-03-13 19:50,50.6304366666667,-96.9808183333333,3.1,3.7,43,980.52,-3.4,97,0.71,0.0,1008.39,48.3
2019-03-13 20:00,50.6304466666667,-96.9807716666667,2.0,3.0,37,980.54,-3.2,95,0.72,0.0,1008.40,0.0
2019-03-13 20:10,50.6304483333333,-96.9807666666667,3.4,5.0,5,980.45,-3.4,95,0.72,0.0,1008.30,0.0
2019-03-13 20:20,50.6304483333333,-96.98077,5.5,6.8,5,980.40,-3.5,97,0.72,0.0,1008.25,0.0
2019-03-13 20:30,50.6304466666667,-96.9807683333333,6.4,7.6,0,980.44,-3.1,95,0.71,0.0,1008.26,0.0
2019-03-13 20:40,50.630445,-96.9807666666667,7.0,8.3,7,980.37,-3.2,96,0.72,0.0,1008.26,0.0
2019-03-13 20:50,50.630445,-96.9807683333333,6.9,7.8,9,980.45,-3.6,99,0.72,0.0,1008.44,0.0
2019-03-13 21:00,50.630445,-96.9807683333333,6.4,7.4,10,980.54,-3.6,99,0.72,0.0,1008.56,270.0
2019-03-13 21:10,50.630445,-96.9807683333333,6.4,7.9,11,980.56,-3.8,99,0.73,0.0,1008.60,270.0
2019-03-13 21:20,50.630445,-96.9807683333333,7.6,8.7,9,980.54,-3.8,99,0.74,0.0,1008.57,270.0
2019-03-13 21:30,50.630445,-96.9807683333333,9.0,11.3,5,980.49,-3.6,99,0.75,0.0,1008.51,270.0
2019-03-13 21:40,50.630445,-96.9807683333333,9.9,11.6,2,980.34,-3.5,99,0.75,0.0,1008.35,270.0
2019-03-13 21:50,50.630445,-96.9807683333333,9.6,11.5,1,980.27,-3.3,99,0.75,0.0,1008.25,270.0
2019-03-13 22:00,50.6304383333333,-96.98072,8.9,10.7,5,980.25,-3.0,99,0.74,0.0,1008.23,114.9
2019-03-13 22:10,50.63044,-96.9807533333333,8.1,10.0,6,980.32,-2.6,98,0.74,0.0,1008.28,114.9
2019-03-13 22:20,50.6304416666667,-96.980755,6.6,9.5,19,980.67,-2.7,99,0.75,0.0,1008.63,114.9
2019-03-13 22:30,50.6304433333333,-96.9807583333333,4.3,5.6,42,980.98,-2.7,99,0.75,0.0,1008.96,114.9
2019-03-13 22:40,50.630445,-96.9807466666667,5.4,6.5,26,980.97,-2.9,99,0.73,0.0,1008.98,114.9
2019-03-13 22:50,50.6304433333333,-96.9807566666667,5.3,6.9,6,981.02,-3.2,99,0.74,0.0,1009.05,114.9
2019-03-13 23:00,50.6304433333333,-96.98076,6.3,8.0,3,981.06,-3.3,99,0.75,0.0,1009.10,125.3
2019-03-13 23:10,50.6304416666667,-96.98076,7.3,8.5,11,981.04,-3.3,99,0.75,0.0,1009.08,125.3
2019-03-13 23:20,50.6304433333333,-96.980765,7.9,9.5,3,980.99,-3.5,99,0.75,0.0,1009.02,125.3
2019-03-13 23:30,50.630445,-96.98077,7.4,9.1,0,981.04,-3.3,99,0.75,0.0,1009.07,125.3
2019-03-13 23:40,50.6304466666667,-96.9807716666667,7.2,8.4,9,981.16,-3.4,99,0.75,0.0,1009.18,125.3
